Weather History for Russell, KS

Change the Weather History Date:

Friday, August 9, 2013

  Actual Average Record
Temperature  
Mean Temperature 70 °F -  
Max Temperature 78 °F 90 °F 106 °F (1976)
Min Temperature 63 °F 66 °F 56 °F (1966)
Cooling Degree Days 5    
Growing Degree Days 20 (Base 50)    
Moisture  
Dew Point 62 °F    
Average Humidity 79    
Maximum Humidity 94    
Minimum Humidity 58    
Precipitation  
Precipitation 0.13 in - - ()
Sea Level Pressure  
Sea Level Pressure 30.07 in    
Wind  
Wind Speed 7 mph (NE)    
Max Wind Speed 14 mph    
Max Gust Speed -    
Visibility 10 miles    
Events Rain    
Averages and records for this station are not official NWS values.
T = Trace of Precipitation, MM = Missing Value Source: NWS Daily Summary

Daily Weather History Graph

Daily Weather History Graph

Search for Another Location

Airport:

Trip Planner

Search our weather history database for the weather conditions in past years. The results will help you decide how hot, cold, wet, or windy it might be!

Date:

Astronomy

Aug. 09, 2013 Rise Set
Actual Time 6:43 AM CDT 8:37 PM CDT
Civil Twilight 6:14 AM CDT 9:05 PM CDT
Nautical Twilight 5:39 AM CDT 9:40 PM CDT
Astronomical Twilight 5:01 AM CDT 10:18 PM CDT
Moon 9:29 AM CDT (8/9) 9:50 PM CDT (8/9)
Length of Visible Light 14h 51m
Length of Day
13h 53m
Waxing Crescent, 8% of the Moon is Illuminated
Aug 9
Waxing Crescent
Aug 14
First Quarter
Aug 20
Full
Aug 28
Last Quarter
Sep 5
New

Hourly Weather History & Observations

Time (CDT) Temp. Dew Point Humidity Pressure Visibility Wind Dir Wind Speed Gust Speed Precip Events Conditions
12:53 AM 66.9 °F 63.0 °F 87% 30.01 in 10.0 mi East 6.9 mph - N/A   Overcast
1:53 AM 68.0 °F 62.1 °F 81% 30.00 in 10.0 mi NE 8.1 mph - 0.01 in   Overcast
2:53 AM 68.0 °F 63.0 °F 84% 30.01 in 10.0 mi ENE 13.8 mph - N/A   Overcast
3:53 AM 64.9 °F 57.9 °F 78% 30.01 in 8.0 mi East 13.8 mph - 0.00 in Rain Rain
4:53 AM 63.0 °F 59.0 °F 87% 30.01 in 5.0 mi NE 3.5 mph - 0.04 in Rain Heavy Rain
5:53 AM 64.0 °F 61.0 °F 90% 30.01 in 10.0 mi NNW 6.9 mph - 0.08 in   Overcast
6:53 AM 64.9 °F 63.0 °F 93% 30.02 in 10.0 mi North 5.8 mph - N/A   Overcast
7:28 AM 66.2 °F 64.4 °F 94% 30.06 in 7.0 mi North 5.8 mph - N/A   Overcast
7:53 AM 64.9 °F 63.0 °F 93% 30.03 in 9.0 mi North 6.9 mph - N/A   Overcast
8:53 AM 66.9 °F 64.0 °F 90% 30.05 in 10.0 mi North 6.9 mph - N/A   Overcast
9:53 AM 69.1 °F 63.0 °F 81% 30.07 in 10.0 mi North 5.8 mph - N/A   Overcast
10:53 AM 70.0 °F 63.0 °F 78% 30.09 in 10.0 mi NE 4.6 mph - N/A   Overcast
11:53 AM 71.1 °F 62.1 °F 73% 30.09 in 10.0 mi Variable 4.6 mph - N/A   Overcast
12:53 PM 72.0 °F 62.1 °F 71% 30.09 in 10.0 mi NE 4.6 mph - N/A   Mostly Cloudy
1:53 PM 73.0 °F 63.0 °F 71% 30.09 in 10.0 mi NE 4.6 mph - 0.00 in Rain Light Rain
2:53 PM 75.0 °F 62.1 °F 64% 30.08 in 10.0 mi ENE 6.9 mph - 0.00 in   Partly Cloudy
3:53 PM 75.0 °F 62.1 °F 64% 30.08 in 10.0 mi East 9.2 mph - 0.00 in   Scattered Clouds
4:53 PM 77.0 °F 62.1 °F 60% 30.09 in 10.0 mi ESE 5.8 mph - N/A   Scattered Clouds
5:53 PM 77.0 °F 61.0 °F 58% 30.08 in 10.0 mi East 5.8 mph - N/A   Clear
6:53 PM 75.9 °F 61.0 °F 60% 30.07 in 10.0 mi Variable 5.8 mph - N/A   Clear
7:53 PM 73.9 °F 62.1 °F 66% 30.08 in 10.0 mi SSE 5.8 mph - N/A   Clear
8:53 PM 70.0 °F 63.0 °F 78% 30.10 in 10.0 mi SSE 4.6 mph - N/A   Clear
9:53 PM 66.0 °F 61.0 °F 84% 30.13 in 10.0 mi South 4.6 mph - N/A   Clear
10:53 PM 64.9 °F 62.1 °F 90% 30.15 in 10.0 mi SW 6.9 mph - N/A   Clear
11:53 PM 64.0 °F 62.1 °F 93% 30.16 in 10.0 mi West 6.9 mph - N/A   Clear